User: anonymous   Login
Location: Columbia
(38.9520°N, 92.3340°W)
Time: 23:31:18
(UTC-05:00)
Language:

Cosmos 2100 Rocket - Orbit

View from above orbital plane
View from above orbital plane
View from above satellite
View from above satellite

Ground track
Ground track

The orbit data is extracted from the following two-line orbital elements,

1 20805U 90083B   14294.83461796  .00000136  00000-0  12522-3 0  8498
2 20805 082.9387 060.5593 0030246 219.0760 250.3710 13.75731445210115
Epoch (UTC): 21 October 2014 20:01:50
Eccentricity: 0.0030246
inclination: 82.9387°
perigee height: 957 km
apogee height: 1001 km
right ascension of ascending node: 60.5593°
argument of perigee: 219.0760°
revolutions per day: 13.75731445
mean anomaly at epoch: 250.3710°
orbit number at epoch: 21011

The dashed part of the orbit path shows where the satellite is in the earth's shadow,  

DLR